Other Public Products
Issued by NWS Grand Forks, ND

Home | Current Version | Previous Version | Text Only | Print | Product List | Glossary Off
Versions: 1 2 3 4 5 6 7 8 9 10 11 12 13 14 15 16 17 18 19 20 21 22 23 24 25 26 27 28 29 30 31 32 33 34 35 36 37 38 39 40 41 42 43 44 45 46 47 48 49 50

000
FPUS83 KFGF 131031
OPUFGF
PRAIRIE TO PINES WEATHER ROUNDUP
NATIONAL WEATHER SERVICE EASTERN NORTH DAKOTA/GRAND FORKS ND
500 AM CDT SUN JUL 13 2014

 **SATELLITE DATA USED TO AUGMENT SKY COVER AT AUTOMATED STATIONS**
 *****  WEATHER ACROSS EASTERN NORTH DAKOTA  *****

CITY           SKY/WX    TMP DP  RH WIND       PRES   REMARKS
GRAND FORKS    CLEAR     53  51  93 W8        29.93S
GRAND FORKS AF CLEAR     54  53  98 W8        29.94S
GRAND CITY NWS   N/A     52 N/A N/A W15         N/A
BUXTON           N/A     53  53  99 W8          N/A
DEVILS LAKE    CLEAR     55  46  71 NW12      29.98R
FARGO          CLEAR     54  51  90 W6        29.96S
WAHPETON ARPT  SUNNY     50  46  87 W5        29.98R
$$

 *****  WEATHER ACROSS CENTRAL AND WESTERN NORTH DAKOTA  *****

CITY           SKY/WX    TMP DP  RH WIND       PRES   REMARKS
JAMESTOWN      PTCLDY    57  54  89 NW7       29.99F
BISMARCK       CLEAR     58  54  86 NW6       30.07R
MINOT          CLEAR     55  45  68 W14       30.06R
MINOT AFB      CLEAR     53  49  86 W10       30.06R
GARRISON         N/A     52  48  86 NW10      30.07S
WILLISTON      CLEAR     57  45  64 N8        30.13R
DICKINSON      CLEAR     53  48  83 W7        30.11S
HETTINGER      CLEAR     52  48  86 NW3       30.14S
$$

 *****  OTHER OBSERVATIONS NORTHEAST NORTH DAKOTA  *****

CITY           SKY/WX    TMP DP  RH WIND       PRES   REMARKS
WALHALLA         N/A     54  50  87 W9          N/A
LANGDON        FAIR      46  45  93 W9        29.96R
CAVALIER       FAIR      50  46  87 W6        29.92S
GRAFTON        FAIR      52  50  93 W9        29.93R
CANDO          FAIR      48  46  93 W8        30.00R
FORT TOTTEN      N/A     58  54  86 NW6       29.95S
ROLLA          PTSUNNY   54  45  71 NW12      30.01R
RUGBY          FAIR      48  48 100 W8        30.02R
 ***** THE ABOVE OBSERVATIONS ARE NON NWS ARE NOT QUALITY
        CONTROLLED AND MAY MIS-REPORT RAIN FOR SNOW...
$$

 *****  OTHER OBSERVATIONS SOUTHEAST NORTH DAKOTA *****

CITY           SKY/WX    TMP DP  RH WIND       PRES   REMARKS
COOPERSTOWN    NOT AVBL
VALLEY CITY    PTSUNNY   55  55 100 W8        29.99S
OAKES          NOT AVBL
GWINNER        SUNNY     57  57 100 W7        30.00S
SHEYENNE NWR     N/A     52  51  97 NW2       29.95
BUFFALO          N/A     52  49  90 W5          N/A
WYNDMERE       NOT AVBL
 ***** THE ABOVE OBSERVATIONS ARE NON NWS ARE NOT QUALITY
       CONTROLLED AND MAY MIS-REPORT RAIN FOR SNOW...
$$

  *****  WEATHER ACROSS NORTHERN MINNESOTA  *****

CITY           SKY/WX    TMP DP  RH WIND       PRES   REMARKS
FLAG ISLAND    MOCLDY    54  48  82 W13       29.83F
WARROAD        DRIZZLE   54  50  87 W13       29.88F
ROSEAU         RAIN      54  48  82 W13G21    29.90S
HALLOCK        CLEAR     55  52  88 CALM      29.90S
THF RVR FALLS  PTCLDY    54  54 100 SW6       29.92S
HALSTAD          N/A     49  48  97 W6          N/A
FOSSTON        CLOUDY    54  52  94 W7        29.95S FOG
BAUDETTE       CLOUDY    54  49  83 VRB3      29.88S
WASKISH        PTCLDY    59  54  82 W14G22    29.89S
CROOKSTON      CLEAR     54  52  94 W9        29.93S
$$
  *****  WEATHER ACROSS CENTRAL AND WEST MINNESOTA  *****

CITY           SKY/WX    TMP DP  RH WIND       PRES   REMARKS
BEMIDJI        FOG       52  52  99 W6        29.92F VSB 1
PARK RAPIDS    PTCLDY    49  48  97 W3        29.94S
WADENA         CLEAR     54  52  94 W3        29.95S
DETROIT LAKES  CLOUDY    55  55 100 NW5       29.97S VSB 3/4
MOORHEAD       PTCLDY    55  55 100 SW3       29.97S
FERGUS FALLS   CLEAR     55  54  94 CALM      29.97S
ELBOW LAKE     FAIR      55  54  94 NW3       29.97S
MORRIS MN      CLEAR     54  52  94 NW5       29.97S
STAPLES        CLEAR     52  52 100 CALM      29.95S
WHEATON        CLEAR     55  54  94 CALM      30.00S
$$
  *****  WEATHER ELSEWHERE ACROSS MINNESOTA  *****

CITY           SKY/WX    TMP DP  RH WIND       PRES   REMARKS
DULUTH         PTCLDY    53  50  89 NW10      29.88R
INTRNTL FALLS  CLEAR     49  46  90 W7        29.85S
ELY            CLEAR     48  46  93 W5        29.85S
CLOQUET        CLEAR     52  48  87 W3        29.90R
BRAINERD       CLEAR     59  51  75 W3        29.94S
HIBBING        CLEAR     48  46  93 W3        29.89S
ALEXANDRIA     CLEAR     58  55  90 NW6       29.97S
SAINT CLOUD    CLEAR     59  54  83 NW5       29.94R
MINNEAPOLIS    PTCLDY    65  63  93 NW5       29.92R
$$

  *****  WEATHER ACROSS SOUTH DAKOTA  *****

CITY           SKY/WX    TMP DP  RH WIND       PRES   REMARKS
SIOUX FALLS    PTCLDY    66  63  90 CALM      30.01S
BROOKINGS      NOT AVBL
WATERTOWN      CLEAR     59  57  93 CALM      30.01S
HURON          CLEAR     61  59  93 NW7       30.01R
SISSETON         N/A     55  53  93 NW3       29.98S
ABERDEEN       CLEAR     53  53 100 W3        30.02R
MITCHELL       CLEAR     65  61  87 SW3       30.02S
PIERRE         CLEAR     61  60  97 NW8       30.05S
MOBRIDGE       CLEAR     58  57  97 CALM      30.04S
RAPID CITY     CLEAR     62  56  80 NW9       30.19S
$$

  *****  SOME WEATHER IN NEARBY STATES *****

CITY           SKY/WX    TMP DP  RH WIND       PRES   REMARKS
GLASGOW MT     NOT AVBL
GREAT FALLS MT NOT AVBL
CHEYENNE WY    CLEAR     59  56  89 W8        30.36S
SCOTTSBLUFF NE CLEAR     62  61  96 CALM      30.25S
OMAHA NE       MOCLDY    68  65  90 N3        30.03S
DES MOINES IA  FOG       66  65  96 CALM      30.01R VSB 1/4
DAVENPORT IA     N/A     65  64  97 W5        29.96R
CHICAGO IL     MOCLDY    70  65  84 W7        29.89R
EAU CLAIRE WI  CLOUDY    63  63 100 W5        29.89R FOG
LA CROSSE WI   CLEAR     64  63  96 S7        29.91R FOG
$$

  *****  SOME NATIONAL WEATHER *****

CITY           SKY/WX    TMP DP  RH WIND       PRES   REMARKS
LA GUARDIA NY  CLOUDY    72  66  81 S7        30.09S
RALEIGH NC     PTCLDY    72  68  87 W3        30.14F
ATLANTA GA     PTCLDY    72  68  87 CALM      30.12F
NEW ORLEANS LA PTCLDY    77  73  87 CALM      30.04F
OKLAHOMA CITY  CLEAR     72  61  68 S9        30.05S
ALBUQUERQUE NM PTCLDY    72  54  53 E10       30.25F
SALT LAKE CITY CLEAR     75  50  41 E6        30.14S
LOS ANGELES CA PTCLDY    68  63  84 NW5       29.92F
BOISE ID       NOT AVBL
SEATTLE WA     CLEAR     66  52  60 N6        30.10S
$$

*** WEATHER ACROSS MANITOBA...SASKATCHEWAN AND ONTARIO ***
                ***ONTARIO***

CITY           SKY/WX    TMP DP  RH WIND       PRES   REMARKS
GERALDTON      CLOUDY    55  50  82 NW8       29.67R
THUNDER BAY    PTCLDY    52  48  87 W6        29.74F
SIOUX LOOKOUT  MOCLDY    52  48  87 W6        29.73F
TORONTO        TSTM      73  68  83 SW14      29.81R
BIG TROUT LK   LGT RAIN  50  48  93 W8        29.51S
PICKLE LAKE    NOT AVBL
DRYDEN         CLOUDY    50  48  93 W10       29.75F
KENORA         PTCLDY    52  45  76 W10G17    29.81S
$$
                *** MANITOBA***

CITY           SKY/WX    TMP DP  RH WIND       PRES   REMARKS
BRANDON        CLEAR     48  46  93 NW10      29.98S
DAUPHIN        CLEAR     52  45  76 W14       29.93F
ISLAND LAKE    LGT RAIN  46  45  93 NW6       29.59
PILOT MOUND      N/A     46  43  87 NW7         N/A
THE PAS        MOCLDY    54  46  76 NW20      29.91
THOMPSON       LGT RAIN  48  48 100 NW15G22   29.68
WINNIPEG       PTCLDY    54  50  87 W12       29.88S
LYNN LAKE      LGT RAIN  50  46  87 NW17G26   29.92R
CHURCHILL      LGT RAIN  39  37  93 NE22G30   29.74R FOG
GILLAM         CLOUDY    45  43  93 N12       29.62  FOG
$$
                ***SASKATCHEWAN***

CITY           SKY/WX    TMP DP  RH WIND       PRES   REMARKS
ESTEVAN        PTCLDY    48  46  93 W7        30.12R
KINDERSLEY     MOCLDY    55  52  88 S2        30.22S
LLOYDMINSTER   CLEAR     52  46  82 NW6       30.22R
PRINCE ALBERT  CLEAR     46  41  81 NW6       30.14R
REGINA         CLEAR     46  43  87 W9        30.14



USA.gov is the U.S. government's official web portal to all federal, state and local government web resources and services.